Location: Gleizolles
(44.4833°N, 6.7667°E)
Time: 03:22:59
(UTC+00:00)

N. Korean satellite - Pass Details

Date: 12 December 2021
Orbit: 447 x 491 km, 97.3° (Epoch: 23 January)

Event Time Altitude Azimuth Distance (km) Brightness Sun altitude
Rises 04:08:19 0° 25° (NNE) 2,459 10.4 -29.6°
Enters shadow 04:08:55 - 28° (NNE) 2,219 10.2 -29.5°
Exits shadow 04:14:02 22° 113° (ESE) 1,041 8.9 -28.6°
Drops below altitude 10° 04:16:10 10° 150° (SSE) 1,579 9.5 -28.3°
Sets 04:18:29 0° 165° (SSE) 2,452 10.4 -27.8°
